K7UV Weather Reports


time (UTC)temp
F
wind
direction
speed
knots
gust
knots
rain 1hr
in
rain 24hr
in
rain mn
in
humidity
%
barometer
mb
20260505083826 56 168 0.9 1.7 0.00 0.00 0.00 53 -103.8
20260505083333 56 155 0.9 1.7 0.00 0.00 0.00 54 -103.8
20260505082815 56 326 0.0 3.5 0.00 0.00 0.00 55 -103.8
20260505082319 57 129 0.0 3.5 0.00 0.00 0.00 54 -103.8
20260505081848 57 157 0.9 3.5 0.00 0.00 0.00 54 -103.8
20260505081334 57 127 0.9 3.5 0.00 0.00 0.00 54 -103.8
20260505080836 57 179 0.9 5.2 0.00 0.00 0.00 55 -103.8
20260505080342 57 148 1.7 5.2 0.00 0.00 0.00 55 -103.8
20260505075816 57 167 0.9 3.5 0.00 0.00 0.00 56 -103.8
20260505075320 57 135 0.9 5.2 0.00 0.00 0.00 55 -103.8
20260505074819 58 169 2.6 5.2 0.00 0.00 0.00 54 -103.8
20260505074329 58 211 0.9 2.6 0.00 0.00 0.00 54 -103.8
20260505073849 58 167 0.9 3.5 0.00 0.00 0.00 53 -103.8
20260505073328 58 164 0.9 3.5 0.00 0.00 0.00 54 -103.8
20260505072829 58 195 0.9 2.6 0.00 0.00 0.00 55 -103.8
20260505072328 58 140 0.0 2.6 0.00 0.00 0.00 54 -103.8
20260505071819 58 148 0.9 6.1 0.00 0.00 0.00 55 -103.8
20260505071318 58 155 1.7 6.1 0.00 0.00 0.00 56 -103.8
20260505070838 58 183 1.7 4.3 0.00 0.00 0.00 55 -103.8
20260505070319 58 297 0.9 5.2 0.00 0.00 0.00 54 -103.8
20260505065858 59 165 2.6 5.2 0.00 0.00 0.00 53 -103.8
20260505065340 59 191 0.9 7.8 0.00 0.00 0.00 52 -103.8
20260505064847 59 153 0.9 7.8 0.00 0.00 0.00 51 -103.8
20260505064349 59 168 2.6 7.0 0.00 0.00 0.00 51 -103.8
20260505063828 60 148 1.7 6.1 0.00 0.00 0.00 49 -103.8
20260505063330 60 158 1.7 9.6 0.00 0.00 0.00 48 -103.8
20260505062832 60 170 2.6 9.6 0.00 0.00 0.00 47 -103.8
20260505062315 60 159 2.6 4.3 0.00 0.00 0.00 47 -103.8
20260505061815 60 178 1.7 3.5 0.00 0.00 0.00 47 -103.8
20260505061318 60 133 0.9 3.5 0.00 0.00 0.00 48 -103.8
20260505060839 60 160 0.9 5.2 0.00 0.00 0.00 48 -103.8
20260505060342 60 131 1.7 4.3 0.00 0.00 0.00 50 -103.8
20260505055831 60 156 2.6 5.2 0.00 0.00 0.00 50 -103.8
20260505055333 60 131 0.9 5.2 0.00 0.00 0.00 50 -103.8
20260505054835 61 131 1.7 7.0 0.00 0.00 0.00 49 -103.8
20260505054339 61 154 3.5 6.1 0.00 0.00 0.00 47 -103.8
20260505053817 61 180 2.6 6.1 0.00 0.00 0.00 45 -103.8
20260505053337 61 158 0.9 4.3 0.00 0.00 0.00 44 -103.8
20260505052815 61 162 1.7 5.2 0.00 0.00 0.00 42 -103.8
20260505052315 61 118 2.6 5.2 0.00 0.00 0.00 41 -103.8
20260505051815 61 197 1.7 6.1 0.00 0.00 0.00 42 -103.8
20260505051317 61 138 1.7 6.1 0.00 0.00 0.00 42 -103.8
20260505050817 60 200 1.7 8.7 0.00 0.00 0.00 43 -103.9
20260505050318 59 189 1.7 5.2 0.00 0.00 0.00 44 -103.9
20260505041341 60 81 0.0 0.0 0.00 0.00 0.00 45 -103.9
20260505040821 60 81 0.0 0.9 0.00 0.00 0.00 44 -103.9
20260505040324 60 81 0.0 0.9 0.00 0.00 0.00 44 -103.9
20260505035821 60 81 0.0 1.7 0.00 0.00 0.00 44 -103.9
20260505035323 60 82 0.0 1.7 0.00 0.00 0.00 44 -103.9
20260505034844 60 145 0.0 0.9 0.00 0.00 0.00 44 -103.9
20260505034326 60 145 0.0 1.7 0.00 0.00 0.00 45 -103.9
20260505033827 60 145 0.0 1.7 0.00 0.00 0.00 45 -104.0
20260505033328 60 146 0.0 0.0 0.00 0.00 0.00 45 -104.0
20260505032848 60 146 0.0 0.9 0.00 0.00 0.00 45 -104.0
20260505032327 60 146 0.9 0.9 0.00 0.00 0.00 45 -104.0
20260505031826 60 145 0.0 1.7 0.00 0.00 0.00 45 -104.0
20260505031327 60 145 0.0 0.9 0.00 0.00 0.00 45 -104.0
20260505030828 60 145 0.0 0.0 0.00 0.00 0.00 45 -104.0
20260505030331 60 145 0.0 0.9 0.00 0.00 0.00 44 -104.0
20260505025318 61 145 0.0 0.9 0.00 0.00 0.00 45 -104.0
20260505024818 61 145 0.0 0.9 0.00 0.00 0.00 45 -104.0
20260505024320 61 145 0.0 0.0 0.00 0.00 0.00 45 -104.0
20260505023820 62 145 0.0 0.0 0.00 0.00 0.00 44 -104.0
20260505023320 62 145 0.0 0.0 0.00 0.00 0.00 44 -104.0
20260505022820 63 145 0.0 0.0 0.00 0.00 0.00 44 -104.0
20260505022323 63 145 0.0 0.0 0.00 0.00 0.00 42 -104.0
20260505021823 64 145 0.0 0.0 0.00 0.00 0.00 41 -104.0
20260505021327 64 145 0.0 0.9 0.00 0.00 0.00 41 -104.0
20260505020828 65 145 0.0 1.7 0.00 0.00 0.00 40 -104.0
20260505020330 65 149 0.0 1.7 0.00 0.00 0.00 40 -104.0
20260505015827 65 208 0.0 0.9 0.00 0.00 0.00 39 -104.0
20260505015331 66 196 0.0 2.6 0.00 0.00 0.00 39 -104.0
20260505014831 66 161 0.9 2.6 0.00 0.00 0.00 38 -104.0
20260505014333 66 173 0.9 2.6 0.00 0.00 0.00 37 -104.0
20260505013834 67 165 0.9 4.3 0.00 0.00 0.00 37 -104.0
20260505013355 67 154 0.9 4.3 0.00 0.00 0.00 35 -104.0
20260505012852 68 162 0.9 2.6 0.00 0.00 0.00 36 -104.0
20260505012314 68 131 0.9 2.6 0.00 0.00 0.00 35 -104.0
20260505011816 68 149 1.7 2.6 0.00 0.00 0.00 34 -104.0
20260505011318 68 188 0.9 3.5 0.00 0.00 0.00 34 -104.0
20260505010818 69 160 1.7 4.3 0.00 0.00 0.00 33 -104.0
20260505010340 69 170 1.7 4.3 0.00 0.00 0.00 33 -104.0
20260505005838 69 164 0.0 2.6 0.00 0.00 0.00 33 -104.0
20260505005319 69 167 0.9 3.5 0.00 0.00 0.00 33 -104.0
20260505004819 70 172 1.7 3.5 0.00 0.00 0.00 31 -104.0
20260505004320 70 163 1.7 3.5 0.00 0.00 0.00 30 -104.0
20260505003819 70 216 0.9 5.2 0.00 0.00 0.00 31 -104.0
20260505003319 70 181 1.7 5.2 0.00 0.00 0.00 31 -104.0
20260505002817 70 165 0.9 3.5 0.00 0.00 0.00 32 -104.0
20260505002318 70 169 1.7 5.2 0.00 0.00 0.00 32 -104.0
20260505001816 71 138 0.9 5.2 0.00 0.00 0.00 31 -104.0
20260505001319 71 169 1.7 4.3 0.00 0.00 0.00 31 -104.0
20260505000819 71 157 0.9 6.1 0.00 0.00 0.00 31 -104.0
20260505000320 71 164 2.6 7.0 0.00 0.00 0.00 30 -104.0
20260504235817 72 172 3.5 7.0 0.00 0.00 0.00 31 -104.0
20260504235338 72 168 1.7 5.2 0.00 0.00 0.00 31 -104.0
20260504234818 73 150 2.6 8.7 0.00 0.00 0.00 31 -104.0
20260504234340 73 60 3.5 8.7 0.00 0.00 0.00 31 -104.0
20260504233820 73 192 1.7 7.0 0.00 0.00 0.00 26 -104.0
20260504233342 73 159 0.9 6.1 0.00 0.00 0.00 22 -104.0
20260504232821 73 160 1.7 4.3 0.00 0.00 0.00 22 -104.0
20260504232321 73 183 0.9 3.5 0.00 0.00 0.00 22 -104.0
20260504231837 73 156 1.7 3.5 0.00 0.00 0.00 19 -104.0
20260504231318 73 168 1.7 5.2 0.00 0.00 0.00 19 -104.0
20260504230817 74 202 1.7 5.2 0.00 0.00 0.00 20 -104.0
20260504230318 74 312 0.0 2.6 0.00 0.00 0.00 22 -104.0
20260504225814 74 160 0.9 2.6 0.00 0.00 0.00 21 -104.0
20260504225317 74 270 0.9 2.6 0.00 0.00 0.00 25 -104.0
20260504224817 74 314 0.9 5.2 0.00 0.00 0.00 27 -104.0
20260504224347 74 155 2.6 4.3 0.00 0.00 0.00 22 -104.0
20260504223827 74 155 0.0 3.5 0.00 0.00 0.00 27 -104.0
20260504223330 74 140 0.9 3.5 0.00 0.00 0.00 25 -104.0
20260504222831 74 162 1.7 3.5 0.00 0.00 0.00 24 -104.0
20260504222315 74 129 0.9 3.5 0.00 0.00 0.00 26 -104.0
20260504221834 74 161 1.7 3.5 0.00 0.00 0.00 24 -104.0
20260504221316 75 159 0.9 5.2 0.00 0.00 0.00 28 -104.0
20260504220817 75 146 1.7 4.3 0.00 0.00 0.00 24 -104.0
20260504220340 75 196 0.9 4.3 0.00 0.00 0.00 24 -104.0
20260504215817 75 146 1.7 4.3 0.00 0.00 0.00 24 -104.0
20260504215319 75 142 0.9 3.5 0.00 0.00 0.00 26 -104.0
20260504214839 75 157 1.7 4.3 0.00 0.00 0.00 23 -103.9
20260504214317 75 171 2.6 4.3 0.00 0.00 0.00 23 -103.9
20260504213835 75 340 0.9 2.6 0.00 0.00 0.00 25 -103.9
20260504213337 76 158 0.9 1.7 0.00 0.00 0.00 26 -103.9
20260504212815 76 199 0.9 5.2 0.00 0.00 0.00 26 -103.9
20260504212315 75 163 1.7 5.2 0.00 0.00 0.00 25 -103.9
20260504211815 76 303 0.9 1.7 0.00 0.00 0.00 27 -103.9
20260504211317 75 319 0.0 2.6 0.00 0.00 0.00 28 -103.9
20260504210816 75 13 1.7 3.5 0.00 0.00 0.00 23 -103.9
20260504210337 74 207 1.7 4.3 0.00 0.00 0.00 24 -103.9
20260504205851 75 323 1.7 4.3 0.00 0.00 0.00 24 -103.9
20260504205331 75 112 0.0 4.3 0.00 0.00 0.00 28 -103.9
20260504204830 75 163 1.7 4.3 0.00 0.00 0.00 23 -103.9
20260504204351 75 271 0.9 3.5 0.00 0.00 0.00 26 -103.9
20260504203830 75 158 0.9 3.5 0.00 0.00 0.00 26 -103.9
20260504203352 74 157 0.9 2.6 0.00 0.00 0.00 25 -103.9
20260504202832 74 328 0.9 5.2 0.00 0.00 0.00 24 -103.9
20260504202333 74 164 2.6 5.2 0.00 0.00 0.00 23 -103.9
20260504201814 74 304 1.7 3.5 0.00 0.00 0.00 26 -103.9
20260504201317 74 162 1.7 3.5 0.00 0.00 0.00 24 -103.8
20260504200817 74 148 0.9 4.3 0.00 0.00 0.00 26 -103.8
20260504200338 74 140 2.6 4.3 0.00 0.00 0.00 25 -103.8
20260504195814 74 293 1.7 3.5 0.00 0.00 0.00 27 -103.8
20260504195314 74 122 0.9 3.5 0.00 0.00 0.00 26 -103.8
20260504194815 74 148 1.7 3.5 0.00 0.00 0.00 26 -103.8
20260504194318 75 305 0.9 2.6 0.00 0.00 0.00 27 -103.8
20260504193819 74 136 0.9 2.6 0.00 0.00 0.00 29 -103.8
20260504193321 74 44 0.0 3.5 0.00 0.00 0.00 28 -103.8
20260504192822 73 155 0.9 3.5 0.00 0.00 0.00 30 -103.8
20260504192322 73 289 0.0 3.5 0.00 0.00 0.00 30 -103.8
20260504191818 73 158 1.7 3.5 0.00 0.00 0.00 25 -103.8
20260504191319 73 153 0.9 3.5 0.00 0.00 0.00 26 -103.8
20260504190818 74 146 2.6 3.5 0.00 0.00 0.00 24 -103.8
20260504190321 73 200 0.9 1.7 0.00 0.00 0.00 29 -103.8
20260504185820 73 6 0.0 2.6 0.00 0.00 0.00 29 -103.7
20260504185322 73 151 0.9 3.5 0.00 0.00 0.00 28 -103.7
20260504184819 73 123 0.9 3.5 0.00 0.00 0.00 30 -103.7
20260504184341 72 136 0.0 8.7 0.00 0.00 0.00 32 -103.7
20260504183820 72 207 0.9 2.6 0.00 0.00 0.00 28 -103.7
20260504183341 72 290 0.9 3.5 0.00 0.00 0.00 30 -103.7
20260504182821 72 165 1.7 3.5 0.00 0.00 0.00 28 -103.7
20260504182322 71 148 1.7 3.5 0.00 0.00 0.00 28 -103.7
20260504181838 70 311 0.9 3.5 0.00 0.00 0.00 29 -103.7
20260504181317 71 321 0.9 3.5 0.00 0.00 0.00 30 -103.7
20260504180818 70 155 0.9 2.6 0.00 0.00 0.00 31 -103.7
20260504180321 70 326 1.7 2.6 0.00 0.00 0.00 31 -103.7
20260504175840 70 125 0.9 3.5 0.00 0.00 0.00 31 -103.7
20260504175322 70 297 0.0 3.5 0.00 0.00 0.00 30 -103.7
20260504174823 70 116 0.9 3.5 0.00 0.00 0.00 33 -103.7
20260504174323 70 294 0.0 1.7 0.00 0.00 0.00 32 -103.7
20260504173823 70 288 0.9 3.5 0.00 0.00 0.00 32 -103.7
20260504173323 70 167 0.9 3.5 0.00 0.00 0.00 33 -103.7
20260504172823 70 126 0.0 0.9 0.00 0.00 0.00 36 -103.7
20260504172344 69 304 0.0 2.6 0.00 0.00 0.00 38 -103.7
20260504171824 69 145 0.0 2.6 0.00 0.00 0.00 34 -103.7
20260504171325 68 112 0.9 4.3 0.00 0.00 0.00 35 -103.7
20260504170825 68 158 1.7 2.6 0.00 0.00 0.00 34 -103.7
20260504170327 67 323 0.9 2.6 0.00 0.00 0.00 38 -103.7
20260504160335 64 345 0.0 1.7 0.00 0.00 0.00 41 -103.6
20260504150838 59 335 0.9 2.6 0.00 0.00 0.00 48 -103.6
20260504150346 59 5 0.0 1.7 0.00 0.00 0.00 47 -103.6
20260504141314 58 303 0.9 1.7 0.00 0.00 0.00 43 -103.6
20260504140822 59 302 0.9 1.7 0.00 0.00 0.00 41 -103.6
20260504140324 59 53 0.9 1.7 0.00 0.00 0.00 41 -103.6
20260504130822 50 124 0.0 0.9 0.00 0.00 0.00 52 -103.6
20260504130325 50 124 0.0 0.0 0.00 0.00 0.00 51 -103.6
20260504110334 50 335 0.0 2.6 0.00 0.00 0.00 55 -103.6
20260504100313 53 153 3.5 5.2 0.00 0.00 0.00 34 -103.7